| time (UTC) | temp F | wind direction | speed MPH | gust MPH | rain 1hr in | rain 24hr in | rain mn in | humidity % | barometer mb |
| 20260831231057 | 83 | 346 | 0.0 | 0.0 | 0.00 | 0.12 | 0.00 | 73 | 1017.7 |
| 20260831230057 | 83 | 346 | 0.0 | 0.0 | 0.00 | 0.12 | 0.00 | 73 | 1017.8 |
| 20260831225057 | 84 | 346 | 0.0 | 0.0 | 0.00 | 0.12 | 0.00 | 72 | 1017.9 |
| 20260831224057 | 84 | 346 | 0.0 | 0.0 | 0.00 | 0.12 | 0.00 | 71 | 1018.1 |
| 20260831223027 | 84 | 346 | 0.0 | 0.0 | 0.00 | 0.12 | 0.00 | 72 | 1018.1 |
| 20260831222027 | 84 | 346 | 0.0 | 0.0 | 0.00 | 0.12 | 0.00 | 71 | 1018.4 |
| 20260831221027 | 84 | 346 | 0.0 | 0.0 | 0.00 | 0.12 | 0.00 | 71 | 1018.3 |
| 20260831220027 | 84 | 346 | 0.0 | 0.0 | 0.00 | 0.12 | 0.00 | 70 | 1018.3 |
| 20260831213957 | 85 | 346 | 0.0 | 0.0 | 0.00 | 0.12 | 0.00 | 69 | 1018.4 |
| 20260831212957 | 85 | 346 | 0.0 | 0.0 | 0.00 | 0.12 | 0.00 | 68 | 1018.4 |
| 20260831211957 | 85 | 49 | 0.0 | 0.0 | 0.00 | 0.12 | 0.00 | 68 | 1018.2 |
| 20260831210957 | 85 | 49 | 0.0 | 0.0 | 0.00 | 0.12 | 0.00 | 68 | 1018.1 |
| 20260831205957 | 85 | 49 | 0.0 | 0.0 | 0.00 | 0.12 | 0.00 | 68 | 1018.1 |
| 20260831204959 | 86 | 49 | 0.0 | 0.0 | 0.00 | 0.12 | 0.00 | 67 | 1018.1 |
| 20260831203957 | 86 | 49 | 0.0 | 0.0 | 0.00 | 0.12 | 0.00 | 66 | 1018.2 |
| 20260831201956 | 86 | 49 | 0.0 | 0.0 | 0.00 | 0.12 | 0.00 | 65 | 1018.2 |
| 20260831200956 | 86 | 167 | 0.0 | 0.0 | 0.00 | 0.12 | 0.00 | 66 | 1018.2 |
| 20260831195956 | 86 | 167 | 0.0 | 0.0 | 0.00 | 0.12 | 0.00 | 66 | 1018.2 |
| 20260831194956 | 86 | 167 | 0.0 | 0.0 | 0.00 | 0.12 | 0.00 | 66 | 1018.2 |
| 20260831193956 | 86 | 167 | 0.0 | 0.0 | 0.00 | 0.12 | 0.00 | 66 | 1018.1 |
| 20260831192957 | 86 | 167 | 0.0 | 0.0 | 0.00 | 0.12 | 0.00 | 64 | 1018.4 |
| 20260831191956 | 86 | 167 | 0.0 | 0.0 | 0.00 | 0.12 | 0.00 | 63 | 1018.6 |
| 20260831190957 | 86 | 167 | 0.0 | 0.0 | 0.00 | 0.12 | 0.00 | 64 | 1018.7 |
| 20260831185926 | 87 | 167 | 0.0 | 0.0 | 0.00 | 0.12 | 0.00 | 63 | 1018.7 |
| 20260831184926 | 87 | 167 | 0.0 | 0.0 | 0.00 | 0.12 | 0.00 | 64 | 1018.8 |
| 20260831183927 | 87 | 167 | 0.0 | 0.0 | 0.00 | 0.12 | 0.00 | 63 | 1018.7 |
| 20260831182926 | 87 | 167 | 0.0 | 0.0 | 0.00 | 0.12 | 0.00 | 61 | 1018.8 |
| 20260831181926 | 87 | 167 | 0.0 | 0.0 | 0.00 | 0.12 | 0.00 | 61 | 1018.8 |
| 20260831175926 | 87 | 167 | 0.0 | 0.0 | 0.00 | 0.12 | 0.00 | 62 | 1018.8 |
| 20260831174926 | 87 | 10 | 0.0 | 0.0 | 0.00 | 0.12 | 0.00 | 67 | 1018.8 |
| 20260831173926 | 86 | 51 | 0.0 | 0.0 | 0.00 | 0.12 | 0.00 | 67 | 1019.1 |
| 20260831172926 | 86 | 51 | 0.0 | 0.0 | 0.00 | 0.12 | 0.00 | 66 | 1019.1 |
| 20260831171926 | 86 | 51 | 0.0 | 0.0 | 0.00 | 0.12 | 0.00 | 66 | 1019.1 |
| 20260831165926 | 85 | 49 | 0.0 | 0.0 | 0.00 | 0.12 | 0.00 | 70 | 1019.5 |
| 20260831164926 | 85 | 49 | 0.0 | 0.0 | 0.00 | 0.12 | 0.00 | 70 | 1019.5 |
| 20260831163926 | 84 | 43 | 0.0 | 1.0 | 0.00 | 0.12 | 0.00 | 71 | 1019.6 |
| 20260831162926 | 84 | 336 | 0.0 | 0.0 | 0.00 | 0.12 | 0.00 | 71 | 1019.7 |
| 20260831160926 | 83 | 69 | 0.0 | 0.0 | 0.00 | 0.12 | 0.00 | 70 | 1019.8 |
| 20260831155926 | 83 | 69 | 0.0 | 0.0 | 0.00 | 0.12 | 0.00 | 72 | 1019.5 |
| 20260831154926 | 83 | 73 | 2.0 | 2.0 | 0.00 | 0.12 | 0.00 | 72 | 1019.4 |
| 20260831153925 | 83 | 71 | 0.0 | 0.0 | 0.00 | 0.12 | 0.00 | 74 | 1019.4 |
| 20260831152925 | 82 | 68 | 0.0 | 0.0 | 0.00 | 0.12 | 0.00 | 76 | 1019.4 |
| 20260831151926 | 81 | 99 | 0.0 | 0.0 | 0.00 | 0.12 | 0.00 | 78 | 1019.6 |
| 20260831150926 | 81 | 64 | 0.0 | 0.0 | 0.00 | 0.12 | 0.00 | 78 | 1019.7 |
| 20260831145925 | 81 | 99 | 0.0 | 0.0 | 0.00 | 0.12 | 0.00 | 79 | 1019.8 |
| 20260831143925 | 80 | 192 | 0.0 | 0.0 | 0.00 | 0.12 | 0.00 | 82 | 1019.4 |
| 20260831142925 | 80 | 82 | 0.0 | 0.0 | 0.00 | 0.12 | 0.00 | 81 | 1019.3 |
| 20260831141925 | 79 | 144 | 0.0 | 0.0 | 0.00 | 0.12 | 0.00 | 82 | 1019.3 |
| 20260831140925 | 79 | 79 | 0.0 | 0.0 | 0.00 | 0.12 | 0.00 | 84 | 1019.4 |
| 20260831135925 | 78 | 64 | 1.0 | 2.0 | 0.00 | 0.12 | 0.00 | 86 | 1019.5 |
| 20260831134926 | 77 | 87 | 2.0 | 2.0 | 0.00 | 0.12 | 0.00 | 88 | 1019.5 |
| 20260831133926 | 76 | 18 | 0.0 | 0.0 | 0.00 | 0.12 | 0.00 | 93 | 1019.6 |
| 20260831131925 | 74 | 18 | 0.0 | 0.0 | 0.00 | 0.12 | 0.00 | 96 | 1019.6 |
| 20260831130926 | 74 | 18 | 0.0 | 0.0 | 0.00 | 0.12 | 0.00 | 97 | 1019.8 |
| 20260831125925 | 74 | 18 | 0.0 | 0.0 | 0.00 | 0.12 | 0.00 | 97 | 1019.7 |
| 20260831124925 | 74 | 18 | 0.0 | 0.0 | 0.00 | 0.12 | 0.00 | 97 | 1019.6 |
| 20260831123925 | 74 | 18 | 0.0 | 0.0 | 0.00 | 0.12 | 0.00 | 97 | 1019.5 |
| 20260831122925 | 73 | 18 | 0.0 | 0.0 | 0.00 | 0.12 | 0.00 | 97 | 1019.5 |
| 20260831121925 | 73 | 18 | 0.0 | 0.0 | 0.00 | 0.12 | 0.00 | 97 | 1019.5 |
| 20260831120925 | 73 | 18 | 0.0 | 0.0 | 0.00 | 0.12 | 0.00 | 97 | 1019.4 |
| 20260831115925 | 73 | 18 | 0.0 | 0.0 | 0.00 | 0.12 | 0.00 | 97 | 1019.3 |
| 20260831114925 | 72 | 18 | 0.0 | 0.0 | 0.00 | 0.12 | 0.00 | 97 | 1019.3 |
| 20260831113925 | 72 | 18 | 0.0 | 0.0 | 0.00 | 0.12 | 0.00 | 97 | 1019.1 |
| 20260831112925 | 72 | 18 | 0.0 | 0.0 | 0.00 | 0.12 | 0.00 | 97 | 1018.9 |
| 20260831111925 | 72 | 18 | 0.0 | 0.0 | 0.00 | 0.12 | 0.00 | 97 | 1018.9 |
| 20260831110925 | 72 | 18 | 0.0 | 0.0 | 0.00 | 0.12 | 0.00 | 97 | 1018.9 |
| 20260831110749 | 71 | 18 | 0.0 | 0.0 | 0.00 | 0.12 | 0.00 | 97 | 1018.8 |
| 20260831105925 | 71 | 18 | 0.0 | 0.0 | 0.00 | 0.12 | 0.00 | 97 | 1018.8 |
| 20260831104925 | 71 | 18 | 0.0 | 0.0 | 0.00 | 0.12 | 0.00 | 97 | 1018.6 |
| 20260831103925 | 71 | 18 | 0.0 | 0.0 | 0.00 | 0.12 | 0.00 | 97 | 1018.4 |
| 20260831102925 | 71 | 18 | 0.0 | 0.0 | 0.00 | 0.12 | 0.00 | 97 | 1018.4 |
| 20260831101925 | 71 | 18 | 0.0 | 0.0 | 0.00 | 0.12 | 0.00 | 97 | 1018.4 |
| 20260831095924 | 72 | 18 | 0.0 | 0.0 | 0.00 | 0.12 | 0.00 | 97 | 1018.4 |
| 20260831094925 | 72 | 18 | 0.0 | 0.0 | 0.00 | 0.12 | 0.00 | 97 | 1018.3 |
| 20260831093855 | 72 | 18 | 0.0 | 0.0 | 0.00 | 0.12 | 0.00 | 97 | 1018.4 |
| 20260831092854 | 72 | 18 | 0.0 | 0.0 | 0.00 | 0.12 | 0.00 | 97 | 1018.4 |
| 20260831091854 | 72 | 18 | 0.0 | 0.0 | 0.00 | 0.12 | 0.00 | 97 | 1018.4 |
| 20260831090854 | 72 | 18 | 0.0 | 0.0 | 0.00 | 0.12 | 0.00 | 97 | 1018.5 |
| 20260831085854 | 72 | 18 | 0.0 | 0.0 | 0.00 | 0.12 | 0.00 | 97 | 1018.4 |
| 20260831084854 | 72 | 18 | 0.0 | 0.0 | 0.00 | 0.12 | 0.00 | 97 | 1018.1 |
| 20260831083854 | 72 | 18 | 0.0 | 0.0 | 0.00 | 0.12 | 0.00 | 97 | 1018.3 |
| 20260831082854 | 72 | 18 | 0.0 | 0.0 | 0.00 | 0.12 | 0.00 | 97 | 1018.2 |
| 20260831081854 | 72 | 18 | 0.0 | 0.0 | 0.00 | 0.12 | 0.00 | 97 | 1018.2 |
| 20260831080854 | 72 | 18 | 0.0 | 0.0 | 0.00 | 0.12 | 0.00 | 97 | 1018.1 |
| 20260831075854 | 72 | 18 | 0.0 | 0.0 | 0.00 | 0.12 | 0.00 | 97 | 1018.1 |
| 20260831074854 | 72 | 18 | 0.0 | 0.0 | 0.00 | 0.12 | 0.00 | 97 | 1018.1 |
| 20260831073854 | 72 | 18 | 0.0 | 0.0 | 0.00 | 0.12 | 0.00 | 97 | 1018.0 |
| 20260831072854 | 72 | 18 | 0.0 | 0.0 | 0.00 | 0.12 | 0.00 | 97 | 1017.9 |
| 20260831071854 | 72 | 18 | 0.0 | 0.0 | 0.00 | 0.12 | 0.00 | 97 | 1018.0 |
| 20260831070854 | 72 | 18 | 0.0 | 0.0 | 0.00 | 0.12 | 0.00 | 96 | 1018.1 |
| 20260831065854 | 72 | 18 | 0.0 | 0.0 | 0.00 | 0.12 | 0.00 | 96 | 1018.2 |
| 20260831064854 | 72 | 18 | 0.0 | 0.0 | 0.00 | 0.12 | 0.00 | 96 | 1018.3 |
| 20260831063855 | 72 | 18 | 0.0 | 0.0 | 0.00 | 0.12 | 0.00 | 96 | 1018.4 |
| 20260831062854 | 73 | 18 | 0.0 | 0.0 | 0.00 | 0.12 | 0.00 | 96 | 1018.4 |
| 20260831061854 | 73 | 18 | 0.0 | 0.0 | 0.00 | 0.12 | 0.00 | 96 | 1018.5 |
| 20260831060854 | 73 | 18 | 0.0 | 0.0 | 0.00 | 0.12 | 0.00 | 96 | 1018.5 |
| 20260831055854 | 73 | 18 | 0.0 | 0.0 | 0.00 | 0.12 | 0.00 | 96 | 1018.7 |
| 20260831054824 | 73 | 18 | 0.0 | 0.0 | 0.00 | 0.12 | 0.00 | 96 | 1018.6 |
| 20260831053824 | 73 | 18 | 0.0 | 0.0 | 0.00 | 0.12 | 0.00 | 96 | 1018.5 |
| 20260831050824 | 73 | 18 | 0.0 | 0.0 | 0.00 | 0.12 | 0.00 | 96 | 1018.7 |
| 20260831045824 | 73 | 18 | 0.0 | 0.0 | 0.00 | 0.12 | 0.00 | 96 | 1018.8 |
| 20260831044824 | 73 | 18 | 0.0 | 0.0 | 0.00 | 0.12 | 0.00 | 96 | 1018.8 |
| 20260831043754 | 73 | 18 | 0.0 | 0.0 | 0.00 | 0.12 | 0.00 | 96 | 1018.8 |
| 20260831042755 | 73 | 18 | 0.0 | 0.0 | 0.00 | 0.12 | 0.00 | 96 | 1018.9 |
| 20260831041724 | 73 | 18 | 0.0 | 0.0 | 0.00 | 0.12 | 0.00 | 96 | 1019.1 |
| 20260831040724 | 74 | 18 | 0.0 | 0.0 | 0.00 | 0.12 | 0.00 | 96 | 1018.9 |
| 20260831035723 | 74 | 18 | 0.0 | 0.0 | 0.00 | 0.12 | 0.12 | 96 | 1019.0 |
| 20260831034724 | 73 | 18 | 0.0 | 0.0 | 0.00 | 0.12 | 0.12 | 96 | 1019.0 |
| 20260831032724 | 73 | 18 | 0.0 | 0.0 | 0.00 | 0.12 | 0.12 | 96 | 1018.7 |
| 20260831031724 | 73 | 18 | 0.0 | 0.0 | 0.00 | 0.12 | 0.12 | 96 | 1018.8 |
| 20260831030723 | 73 | 18 | 0.0 | 0.0 | 0.00 | 0.12 | 0.12 | 96 | 1018.8 |
| 20260831025723 | 73 | 18 | 0.0 | 0.0 | 0.00 | 0.12 | 0.12 | 96 | 1018.9 |
| 20260831024724 | 73 | 18 | 0.0 | 0.0 | 0.00 | 0.12 | 0.12 | 96 | 1019.0 |
| 20260831023724 | 73 | 18 | 0.0 | 0.0 | 0.00 | 0.12 | 0.12 | 96 | 1019.1 |
| 20260831022724 | 73 | 18 | 0.0 | 0.0 | 0.00 | 0.12 | 0.12 | 96 | 1019.3 |
| 20260831020725 | 73 | 18 | 0.0 | 0.0 | 0.00 | 0.12 | 0.12 | 96 | 1019.3 |
| 20260831014723 | 74 | 18 | 0.0 | 0.0 | 0.00 | 0.12 | 0.12 | 96 | 1019.4 |
| 20260831013723 | 74 | 18 | 0.0 | 0.0 | 0.00 | 0.12 | 0.12 | 95 | 1019.3 |
| 20260831012723 | 74 | 18 | 0.0 | 0.0 | 0.00 | 0.12 | 0.12 | 95 | 1019.2 |
| 20260831011725 | 73 | 18 | 0.0 | 0.0 | 0.12 | 0.12 | 0.12 | 95 | 1019.1 |
| 20260831010723 | 73 | 18 | 0.0 | 0.0 | 0.12 | 0.12 | 0.12 | 95 | 1019.1 |
| 20260831010129 | 73 | 18 | 0.0 | 0.0 | 0.12 | 0.12 | 0.12 | 94 | 1019.1 |
| 20260831005723 | 73 | 18 | 0.0 | 0.0 | 0.12 | 0.12 | 0.12 | 94 | 1019.1 |
| 20260831004723 | 73 | 18 | 0.0 | 0.0 | 0.12 | 0.12 | 0.12 | 94 | 1019.1 |
| 20260831003653 | 73 | 18 | 0.0 | 0.0 | 0.12 | 0.12 | 0.12 | 91 | 1019.3 |
| 20260831002653 | 74 | 18 | 0.0 | 0.0 | 0.12 | 0.12 | 0.12 | 88 | 1019.8 |
| 20260831000656 | 78 | 339 | 3.0 | 6.0 | 0.00 | 0.00 | 0.00 | 75 | 1019.9 |
| 20260830235653 | 81 | 9 | 2.0 | 8.0 | 0.00 | 0.00 | 0.00 | 71 | 1019.7 |
| 20260830234653 | 82 | 144 | 0.0 | 0.0 | 0.00 | 0.00 | 0.00 | 73 | 1019.0 |
| 20260830233653 | 83 | 235 | 1.0 | 3.0 | 0.00 | 0.00 | 0.00 | 72 | 1018.7 |
| 20260830232653 | 83 | 240 | 1.0 | 1.0 | 0.00 | 0.00 | 0.00 | 70 | 1018.7 |
| 20260830231653 | 84 | 182 | 1.0 | 3.0 | 0.00 | 0.00 | 0.00 | 68 | 1018.6 |